SWR8AD EKCH-LSZH

Flight info

Callsign SWR8AD
Flight time 1h 25m
Altitude 36000
Route NEXEN T503 GIMRU DCT MICOS DCT TOLGI DCT SWALM DCT OMOGI/N0445F370 T721 RILAX
Aircraft A320/M-SDE3FGHIRWY/LB1

Departure

Time 2026-04-26 10:21
Airport Copenhagen Kastrup Airport (EKCH)

Arrival

Time 2026-04-26 11:46
Airport Zürich Airport (LSZH)
Time Latitude Longitude Altitude Speed Heading
2026-04-26 09:43 55.62745 12.64040 24 ft 0 kts 33°
2026-04-26 10:03 55.62731 12.64024 25 ft 4 kts 33°
2026-04-26 10:03 55.62713 12.64002 26 ft 2 kts 33°
2026-04-26 10:03 55.62693 12.63975 26 ft 4 kts 70°
2026-04-26 10:04 55.62697 12.63942 25 ft 4 kts 128°
2026-04-26 10:04 55.62716 12.63913 24 ft 4 kts 169°
2026-04-26 10:04 55.62741 12.63916 26 ft 4 kts 205°
2026-04-26 10:04 55.62765 12.63940 26 ft 4 kts 215°
2026-04-26 10:05 55.62774 12.63952 27 ft 0 kts 212°
2026-04-26 10:07 55.62754 12.63929 25 ft 7 kts 212°
2026-04-26 10:07 55.62706 12.63875 24 ft 10 kts 212°
2026-04-26 10:07 55.62649 12.63873 25 ft 9 kts 138°
2026-04-26 10:08 55.62610 12.63976 24 ft 11 kts 123°
2026-04-26 10:08 55.62569 12.64086 25 ft 11 kts 123°
2026-04-26 10:08 55.62514 12.64236 24 ft 15 kts 123°
2026-04-26 10:08 55.62456 12.64377 24 ft 14 kts 128°
2026-04-26 10:09 55.62386 12.64445 24 ft 13 kts 181°
2026-04-26 10:09 55.62304 12.64409 24 ft 12 kts 195°
2026-04-26 10:09 55.62218 12.64402 22 ft 17 kts 167°
2026-04-26 10:09 55.62132 12.64432 25 ft 14 kts 169°
2026-04-26 10:10 55.62069 12.64453 24 ft 13 kts 169°
2026-04-26 10:10 55.61986 12.64480 24 ft 16 kts 169°
2026-04-26 10:10 55.61839 12.64530 24 ft 23 kts 168°
2026-04-26 10:10 55.61691 12.64564 24 ft 20 kts 189°
2026-04-26 10:11 55.61575 12.64448 25 ft 18 kts 214°
2026-04-26 10:11 55.61472 12.64332 25 ft 17 kts 212°
2026-04-26 10:11 55.61376 12.64220 24 ft 21 kts 214°
2026-04-26 10:11 55.61223 12.64044 24 ft 28 kts 213°
2026-04-26 10:12 55.61066 12.63863 24 ft 26 kts 213°
2026-04-26 10:12 55.60919 12.63695 24 ft 24 kts 213°
2026-04-26 10:12 55.60784 12.63542 24 ft 22 kts 213°
2026-04-26 10:12 55.60663 12.63397 24 ft 20 kts 216°
2026-04-26 10:13 55.60562 12.63246 24 ft 18 kts 221°
2026-04-26 10:13 55.60469 12.63119 24 ft 16 kts 199°
2026-04-26 10:13 55.60395 12.63181 24 ft 3 kts 131°
2026-04-26 10:15 55.60395 12.63182 24 ft 0 kts 131°
2026-04-26 10:16 55.60375 12.63222 24 ft 5 kts 131°
2026-04-26 10:16 55.60357 12.63258 25 ft 2 kts 131°
2026-04-26 10:16 55.60343 12.63287 29 ft 9 kts 131°
2026-04-26 10:16 55.60364 12.63384 27 ft 10 kts 40°
2026-04-26 10:17 55.60370 12.63393 26 ft 0 kts 40°
2026-04-26 10:20 55.60371 12.63394 26 ft 1 kts 40°
2026-04-26 10:21 55.60460 12.63530 26 ft 49 kts 41°
2026-04-26 10:21 55.60879 12.64179 26 ft 109 kts 40°
2026-04-26 10:21 55.61574 12.65242 33 ft 153 kts 39°
2026-04-26 10:21 55.62325 12.66354 655 ft 150 kts 36°
2026-04-26 10:22 55.63064 12.67497 1396 ft 155 kts 35°
2026-04-26 10:22 55.63932 12.68842 1780 ft 177 kts 34°
2026-04-26 10:22 55.64917 12.70372 2079 ft 199 kts 35°
2026-04-26 10:22 55.66021 12.72051 2413 ft 219 kts 34°
2026-04-26 10:23 55.67252 12.73882 2795 ft 243 kts 35°
2026-04-26 10:23 55.68573 12.75900 3480 ft 256 kts 41°
2026-04-26 10:23 55.69552 12.78601 4358 ft 268 kts 66°
2026-04-26 10:23 55.69840 12.81903 5271 ft 277 kts 91°
2026-04-26 10:24 55.69319 12.85219 6112 ft 286 kts 118°
2026-04-26 10:24 55.68037 12.87869 6903 ft 291 kts 146°
2026-04-26 10:24 55.66209 12.89423 7613 ft 295 kts 162°
2026-04-26 10:24 55.64199 12.90389 8329 ft 297 kts 179°
2026-04-26 10:25 55.62187 12.90064 9030 ft 293 kts 204°
2026-04-26 10:25 55.60418 12.88422 9775 ft 285 kts 226°
2026-04-26 10:25 55.58907 12.86138 10514 ft 288 kts 229°
2026-04-26 10:25 55.57344 12.83741 10805 ft 309 kts 229°
2026-04-26 10:26 55.55657 12.81154 11005 ft 332 kts 228°
2026-04-26 10:26 55.53874 12.78447 11506 ft 342 kts 227°
2026-04-26 10:26 55.52050 12.75707 12177 ft 347 kts 227°
2026-04-26 10:26 55.50194 12.72942 12856 ft 351 kts 227°
2026-04-26 10:27 55.48953 12.71099 13297 ft 354 kts 227°
2026-04-26 10:27 55.46439 12.67365 14178 ft 359 kts 227°
2026-04-26 10:27 55.44522 12.64507 14774 ft 362 kts 228°
2026-04-26 10:27 55.42592 12.61625 15385 ft 365 kts 228°
2026-04-26 10:28 55.40645 12.58721 15993 ft 368 kts 228°
2026-04-26 10:28 55.38683 12.55795 16585 ft 371 kts 228°
2026-04-26 10:28 55.37375 12.53847 16989 ft 373 kts 228°
2026-04-26 10:28 55.35387 12.50889 17583 ft 376 kts 228°
2026-04-26 10:29 55.33382 12.47911 18176 ft 379 kts 229°
2026-04-26 10:29 55.31366 12.44917 18735 ft 382 kts 228°
2026-04-26 10:29 55.28663 12.40913 19438 ft 385 kts 228°
2026-04-26 10:29 55.26610 12.37887 19971 ft 387 kts 228°
2026-04-26 10:30 55.24538 12.34837 20502 ft 390 kts 228°
2026-04-26 10:30 55.23162 12.32810 20862 ft 391 kts 228°
2026-04-26 10:30 55.21073 12.29734 21393 ft 393 kts 228°
2026-04-26 10:30 55.18970 12.26642 21918 ft 396 kts 228°
2026-04-26 10:31 55.16857 12.23538 22406 ft 398 kts 228°
2026-04-26 10:31 55.14726 12.20409 22905 ft 401 kts 228°
2026-04-26 10:31 55.12586 12.17274 23385 ft 403 kts 228°
2026-04-26 10:31 55.09724 12.13090 23987 ft 406 kts 228°
2026-04-26 10:32 55.08286 12.10989 24235 ft 408 kts 228°
2026-04-26 10:32 55.06075 12.07763 24624 ft 410 kts 228°
2026-04-26 10:32 55.03917 12.04620 25001 ft 412 kts 227°
2026-04-26 10:32 55.00959 12.00328 25502 ft 414 kts 227°
2026-04-26 10:33 54.99491 11.98203 25723 ft 416 kts 227°
2026-04-26 10:33 54.97262 11.94981 26076 ft 417 kts 227°
2026-04-26 10:33 54.95021 11.91745 26433 ft 419 kts 227°
2026-04-26 10:33 54.92774 11.88504 26772 ft 421 kts 227°
2026-04-26 10:34 54.90517 11.85249 27109 ft 423 kts 227°
2026-04-26 10:34 54.88250 11.81980 27442 ft 424 kts 227°
2026-04-26 10:34 54.86001 11.78739 27773 ft 426 kts 227°
2026-04-26 10:34 54.83863 11.75664 28062 ft 428 kts 227°
2026-04-26 10:35 54.81695 11.72551 28342 ft 429 kts 227°
2026-04-26 10:35 54.79386 11.69245 28651 ft 431 kts 227°
2026-04-26 10:35 54.77066 11.65936 28948 ft 433 kts 226°
2026-04-26 10:35 54.74738 11.62625 29243 ft 434 kts 226°
2026-04-26 10:36 54.72399 11.59297 29525 ft 436 kts 226°
2026-04-26 10:36 54.70050 11.55953 29793 ft 438 kts 226°
2026-04-26 10:36 54.67695 11.52602 30051 ft 439 kts 226°
2026-04-26 10:36 54.65332 11.49244 30310 ft 441 kts 226°
2026-04-26 10:37 54.62990 11.45925 30518 ft 442 kts 226°
2026-04-26 10:37 54.60606 11.42557 30722 ft 444 kts 226°
2026-04-26 10:37 54.58214 11.39188 30950 ft 444 kts 226°
2026-04-26 10:37 54.55827 11.35830 31234 ft 443 kts 226°
2026-04-26 10:38 54.53446 11.32478 31517 ft 441 kts 226°
2026-04-26 10:38 54.51071 11.29141 31800 ft 441 kts 226°
2026-04-26 10:38 54.48697 11.25813 32079 ft 440 kts 226°
2026-04-26 10:38 54.46360 11.22540 32354 ft 439 kts 226°
2026-04-26 10:39 54.43995 11.19237 32629 ft 438 kts 226°
2026-04-26 10:39 54.41632 11.15939 32930 ft 437 kts 226°
2026-04-26 10:39 54.39278 11.12654 33206 ft 436 kts 226°
2026-04-26 10:39 54.36927 11.09379 33490 ft 435 kts 226°
2026-04-26 10:40 54.34580 11.06115 33768 ft 434 kts 226°
2026-04-26 10:40 54.32220 11.02895 34055 ft 436 kts 223°
2026-04-26 10:40 54.29615 11.00151 34287 ft 445 kts 214°
2026-04-26 10:40 54.26742 10.98095 34354 ft 451 kts 207°
2026-04-26 10:41 54.23827 10.96276 34555 ft 451 kts 207°
2026-04-26 10:41 54.20880 10.94434 34787 ft 451 kts 207°
2026-04-26 10:41 54.17936 10.92589 35000 ft 451 kts 207°
2026-04-26 10:41 54.14991 10.90740 35191 ft 451 kts 207°
2026-04-26 10:42 54.12042 10.88888 35393 ft 451 kts 207°
2026-04-26 10:42 54.09102 10.87042 35578 ft 451 kts 207°
2026-04-26 10:42 54.06149 10.85193 35752 ft 452 kts 206°
2026-04-26 10:42 54.03198 10.83352 35919 ft 452 kts 206°
2026-04-26 10:43 54.00250 10.81522 36087 ft 452 kts 206°
2026-04-26 10:43 53.97334 10.79718 36267 ft 452 kts 206°
2026-04-26 10:43 53.94378 10.77887 36432 ft 452 kts 206°
2026-04-26 10:43 53.91422 10.76052 36587 ft 452 kts 206°
2026-04-26 10:44 53.88473 10.74221 36745 ft 452 kts 206°
2026-04-26 10:44 53.85516 10.72389 36905 ft 452 kts 206°
2026-04-26 10:44 53.82556 10.70555 37048 ft 453 kts 206°
2026-04-26 10:44 53.79604 10.68730 37199 ft 452 kts 206°
2026-04-26 10:45 53.76644 10.66907 37333 ft 453 kts 206°
2026-04-26 10:45 53.73722 10.65111 37373 ft 453 kts 206°
2026-04-26 10:45 53.67804 10.61479 37346 ft 453 kts 206°
2026-04-26 10:46 53.61887 10.57867 37347 ft 452 kts 206°
2026-04-26 10:46 53.55955 10.54264 37340 ft 453 kts 206°
2026-04-26 10:47 53.50077 10.50685 37349 ft 453 kts 206°
2026-04-26 10:47 53.44162 10.47091 37335 ft 453 kts 206°
2026-04-26 10:48 53.38221 10.43503 37333 ft 453 kts 206°
2026-04-26 10:48 53.32288 10.39942 37336 ft 453 kts 206°
2026-04-26 10:49 53.26355 10.36380 37326 ft 453 kts 206°
2026-04-26 10:49 53.20458 10.32837 37328 ft 455 kts 206°
2026-04-26 10:50 53.14496 10.29274 37339 ft 455 kts 206°
2026-04-26 10:50 53.08541 10.25732 37336 ft 454 kts 205°
2026-04-26 10:51 52.99614 10.20439 37334 ft 454 kts 205°
2026-04-26 10:52 52.93700 10.16948 37332 ft 454 kts 205°
2026-04-26 10:52 52.87752 10.13449 37332 ft 453 kts 205°
2026-04-26 10:53 52.81808 10.09947 37335 ft 453 kts 205°
2026-04-26 10:53 52.75864 10.06461 37346 ft 453 kts 205°
2026-04-26 10:54 52.66986 10.01288 37361 ft 453 kts 205°
2026-04-26 10:54 52.61042 9.97831 37356 ft 453 kts 205°
2026-04-26 10:55 52.55092 9.94372 37183 ft 455 kts 205°
2026-04-26 10:55 52.49124 9.90928 36580 ft 460 kts 205°
2026-04-26 10:56 52.43206 9.87530 36791 ft 453 kts 205°
2026-04-26 10:56 52.40235 9.85825 36994 ft 452 kts 205°
2026-04-26 10:56 52.37274 9.84122 37204 ft 451 kts 205°
2026-04-26 10:57 52.34317 9.82421 37351 ft 451 kts 205°
2026-04-26 10:57 52.31352 9.80712 37353 ft 453 kts 205°
2026-04-26 10:57 52.25428 9.77310 37353 ft 454 kts 204°
2026-04-26 10:58 52.19465 9.73915 37350 ft 454 kts 204°
2026-04-26 10:58 52.13498 9.70533 37344 ft 454 kts 204°
2026-04-26 10:59 52.07537 9.67147 37338 ft 454 kts 204°
2026-04-26 10:59 52.01569 9.63769 37334 ft 455 kts 204°
2026-04-26 11:00 51.95632 9.60428 37331 ft 455 kts 204°
2026-04-26 11:00 51.89649 9.57061 37329 ft 455 kts 204°
2026-04-26 11:01 51.83654 9.53725 37330 ft 457 kts 201°
2026-04-26 11:01 51.77389 9.51625 37324 ft 461 kts 195°
2026-04-26 11:02 51.71075 9.49742 37319 ft 461 kts 194°
2026-04-26 11:02 51.64816 9.47873 37326 ft 461 kts 195°
2026-04-26 11:03 51.58511 9.45991 37332 ft 461 kts 195°
2026-04-26 11:03 51.52211 9.44105 37330 ft 460 kts 195°
2026-04-26 11:04 51.45920 9.42228 37329 ft 460 kts 194°
2026-04-26 11:04 51.39672 9.40381 37324 ft 460 kts 194°
2026-04-26 11:05 51.33374 9.38512 37328 ft 460 kts 194°
2026-04-26 11:05 51.27082 9.36652 37329 ft 460 kts 194°
2026-04-26 11:06 51.20784 9.34806 37328 ft 460 kts 194°
2026-04-26 11:06 51.14533 9.32972 37336 ft 460 kts 194°
2026-04-26 11:07 51.08243 9.31132 37339 ft 460 kts 194°
2026-04-26 11:07 51.01951 9.29302 37341 ft 459 kts 194°
2026-04-26 11:08 50.95665 9.27478 37332 ft 459 kts 194°
2026-04-26 11:08 50.89422 9.25668 37331 ft 459 kts 194°
2026-04-26 11:09 50.83145 9.23854 37330 ft 459 kts 194°
2026-04-26 11:09 50.76875 9.22032 37322 ft 458 kts 194°
2026-04-26 11:10 50.70601 9.20240 37318 ft 458 kts 193°
2026-04-26 11:10 50.64322 9.18826 37316 ft 459 kts 190°
2026-04-26 11:11 50.57975 9.17638 37316 ft 459 kts 190°
2026-04-26 11:11 50.51794 9.16444 37316 ft 458 kts 190°
2026-04-26 11:12 50.45474 9.15133 37311 ft 458 kts 191°
2026-04-26 11:12 50.39167 9.13805 37310 ft 457 kts 191°
2026-04-26 11:13 50.32914 9.12515 37303 ft 456 kts 191°
2026-04-26 11:13 50.26618 9.11234 37304 ft 456 kts 190°
2026-04-26 11:14 50.20320 9.09955 37299 ft 456 kts 191°
2026-04-26 11:14 50.14036 9.08671 37298 ft 455 kts 190°
2026-04-26 11:15 50.07754 9.07397 37302 ft 455 kts 191°
2026-04-26 11:15 50.01524 9.06128 37302 ft 454 kts 191°
2026-04-26 11:16 49.95262 9.04863 37296 ft 454 kts 190°
2026-04-26 11:16 49.88999 9.03607 37295 ft 453 kts 191°
2026-04-26 11:17 49.82751 9.02345 37286 ft 453 kts 191°
2026-04-26 11:17 49.76547 9.01099 37285 ft 452 kts 190°
2026-04-26 11:18 49.70316 8.99861 37282 ft 452 kts 190°
2026-04-26 11:18 49.64089 8.98594 37279 ft 450 kts 192°
2026-04-26 11:19 49.57921 8.96968 37282 ft 449 kts 194°
2026-04-26 11:19 49.51822 8.95171 37283 ft 449 kts 194°
2026-04-26 11:20 49.46718 8.93699 37284 ft 449 kts 193°
2026-04-26 11:20 49.39534 8.91730 37283 ft 449 kts 193°
2026-04-26 11:21 49.33376 8.90080 37276 ft 449 kts 193°
2026-04-26 11:21 49.27266 8.88428 37273 ft 449 kts 193°
2026-04-26 11:22 49.21121 8.86754 37266 ft 448 kts 193°
2026-04-26 11:22 49.14986 8.85075 37257 ft 448 kts 193°
2026-04-26 11:23 49.08856 8.83403 37255 ft 447 kts 193°
2026-04-26 11:23 49.02766 8.81749 37257 ft 447 kts 193°
2026-04-26 11:24 48.96638 8.80096 37251 ft 447 kts 193°
2026-04-26 11:24 48.90509 8.78437 37251 ft 447 kts 193°
2026-04-26 11:25 48.84380 8.76785 37250 ft 447 kts 192°
2026-04-26 11:25 48.78258 8.75151 37255 ft 447 kts 192°
2026-04-26 11:26 48.72169 8.73521 37268 ft 446 kts 193°
2026-04-26 11:26 48.69121 8.72706 37112 ft 443 kts 192°
2026-04-26 11:26 48.66097 8.71904 36841 ft 439 kts 193°
2026-04-26 11:27 48.63096 8.71109 36524 ft 437 kts 193°
2026-04-26 11:27 48.60093 8.70313 35805 ft 438 kts 193°
2026-04-26 11:27 48.57100 8.69516 35035 ft 439 kts 193°
2026-04-26 11:27 48.54079 8.68706 34173 ft 442 kts 193°
2026-04-26 11:28 48.51046 8.67893 33210 ft 444 kts 193°
2026-04-26 11:28 48.48036 8.67091 32353 ft 444 kts 193°
2026-04-26 11:28 48.45017 8.66294 31858 ft 437 kts 193°
2026-04-26 11:28 48.42040 8.65511 31270 ft 432 kts 193°
2026-04-26 11:29 48.39092 8.64738 30693 ft 428 kts 193°
2026-04-26 11:29 48.36179 8.63954 30093 ft 424 kts 193°
2026-04-26 11:29 48.33305 8.63114 29503 ft 418 kts 194°
2026-04-26 11:29 48.30471 8.62242 28954 ft 413 kts 194°
2026-04-26 11:30 48.27673 8.61369 28405 ft 408 kts 194°
2026-04-26 11:30 48.25839 8.60797 28048 ft 406 kts 194°
2026-04-26 11:30 48.22198 8.59667 27344 ft 401 kts 194°
2026-04-26 11:30 48.19484 8.58836 26814 ft 397 kts 194°
2026-04-26 11:31 48.16778 8.58023 26309 ft 394 kts 194°
2026-04-26 11:31 48.14100 8.57231 25798 ft 391 kts 194°
2026-04-26 11:31 48.11479 8.56462 25310 ft 389 kts 194°
2026-04-26 11:31 48.08798 8.55675 24818 ft 386 kts 194°
2026-04-26 11:32 48.06201 8.54909 24345 ft 384 kts 194°
2026-04-26 11:32 48.03589 8.54136 23889 ft 382 kts 194°
2026-04-26 11:32 48.00987 8.53363 23382 ft 380 kts 194°
2026-04-26 11:32 47.98405 8.52653 22934 ft 377 kts 189°
2026-04-26 11:33 47.95786 8.52580 22489 ft 377 kts 177°
2026-04-26 11:33 47.93210 8.53311 22022 ft 378 kts 165°
2026-04-26 11:33 47.90772 8.54815 21530 ft 381 kts 153°
2026-04-26 11:33 47.88533 8.56912 21035 ft 381 kts 149°
2026-04-26 11:34 47.86312 8.59072 20533 ft 380 kts 148°
2026-04-26 11:34 47.84123 8.61197 20024 ft 381 kts 149°
2026-04-26 11:34 47.81896 8.63351 19501 ft 382 kts 148°
2026-04-26 11:34 47.79665 8.65502 18972 ft 383 kts 148°
2026-04-26 11:35 47.77427 8.67656 18432 ft 385 kts 148°
2026-04-26 11:35 47.75177 8.69818 17870 ft 385 kts 148°
2026-04-26 11:35 47.72926 8.71977 17328 ft 384 kts 148°
2026-04-26 11:35 47.71459 8.73383 16979 ft 383 kts 148°
2026-04-26 11:36 47.68258 8.75590 16271 ft 379 kts 170°
2026-04-26 11:36 47.65686 8.75671 15785 ft 375 kts 192°
2026-04-26 11:36 47.63273 8.74382 15249 ft 369 kts 213°
2026-04-26 11:36 47.61382 8.71904 14937 ft 360 kts 233°
2026-04-26 11:37 47.60231 8.68954 14486 ft 355 kts 247°
2026-04-26 11:37 47.59432 8.65531 13646 ft 354 kts 261°
2026-04-26 11:37 47.59385 8.61918 13028 ft 348 kts 278°
2026-04-26 11:37 47.60083 8.58542 12356 ft 342 kts 297°
2026-04-26 11:38 47.61417 8.55718 11851 ft 342 kts 314°
2026-04-26 11:38 47.63054 8.53409 11368 ft 341 kts 317°
2026-04-26 11:38 47.64777 8.51043 11148 ft 331 kts 317°
2026-04-26 11:38 47.66289 8.48952 11026 ft 310 kts 317°
2026-04-26 11:39 47.67817 8.46859 10909 ft 288 kts 317°
2026-04-26 11:39 47.69245 8.44914 10775 ft 269 kts 317°
2026-04-26 11:39 47.70579 8.43097 10659 ft 251 kts 317°
2026-04-26 11:39 47.71826 8.41393 10356 ft 243 kts 317°
2026-04-26 11:40 47.73075 8.39639 9689 ft 249 kts 311°
2026-04-26 11:40 47.73892 8.37441 9233 ft 247 kts 284°
2026-04-26 11:40 47.73972 8.34956 8850 ft 239 kts 258°
2026-04-26 11:40 47.73348 8.32732 8479 ft 232 kts 233°
2026-04-26 11:41 47.72283 8.30934 7964 ft 234 kts 226°
2026-04-26 11:42 47.62614 8.33841 5283 ft 230 kts 135°
2026-04-26 11:43 47.61445 8.35450 4997 ft 232 kts 135°
2026-04-26 11:43 47.60243 8.37106 4649 ft 237 kts 135°
2026-04-26 11:43 47.59046 8.38750 4333 ft 233 kts 134°
2026-04-26 11:43 47.57861 8.40377 4049 ft 235 kts 133°
2026-04-26 11:44 47.56650 8.42043 3712 ft 238 kts 134°
2026-04-26 11:44 47.55420 8.43733 3380 ft 241 kts 134°
2026-04-26 11:44 47.54211 8.45389 3065 ft 232 kts 134°
2026-04-26 11:44 47.53053 8.46974 2775 ft 222 kts 134°
2026-04-26 11:45 47.51956 8.48475 2472 ft 212 kts 133°
2026-04-26 11:45 47.50910 8.49904 2218 ft 196 kts 133°
2026-04-26 11:45 47.49936 8.51234 1924 ft 182 kts 132°
2026-04-26 11:45 47.49070 8.52436 1665 ft 160 kts 133°
2026-04-26 11:46 47.48293 8.53502 1460 ft 145 kts 133°
2026-04-26 11:46 47.47639 8.54427 1400 ft 111 kts 137°
2026-04-26 11:46 47.47175 8.55037 1385 ft 80 kts 138°
2026-04-26 11:46 47.46801 8.55523 1396 ft 44 kts 140°
2026-04-26 11:47 47.46563 8.55690 1397 ft 20 kts 167°
2026-04-26 11:47 47.46447 8.55731 1402 ft 0 kts 168°
2026-04-26 11:47 47.46428 8.55737 1397 ft 2 kts 167°
2026-04-26 11:48 47.46411 8.55746 1400 ft 8 kts 158°
2026-04-26 11:48 47.46360 8.55792 1404 ft 7 kts 140°
2026-04-26 11:48 47.46306 8.55865 1405 ft 14 kts 137°
2026-04-26 11:48 47.46232 8.55963 1406 ft 17 kts 139°
2026-04-26 11:49 47.46120 8.56007 1407 ft 15 kts 187°
2026-04-26 11:49 47.46022 8.55980 1406 ft 14 kts 187°
2026-04-26 11:49 47.45930 8.55950 1412 ft 13 kts 200°
2026-04-26 11:49 47.45868 8.55916 1414 ft 9 kts 198°
2026-04-26 11:50 47.45809 8.55888 1412 ft 9 kts 197°
2026-04-26 11:50 47.45720 8.55869 1412 ft 16 kts 185°
2026-04-26 11:50 47.45616 8.55854 1410 ft 14 kts 186°
2026-04-26 11:50 47.45523 8.55847 1408 ft 13 kts 164°
2026-04-26 11:51 47.45494 8.55960 1407 ft 13 kts 94°
2026-04-26 11:51 47.45475 8.56070 1408 ft 8 kts 159°
2026-04-26 11:51 47.45425 8.56064 1407 ft 0 kts 186°
2026-04-26 11:51 47.45422 8.56064 1407 ft 1 kts 186°
2026-04-26 11:52 47.45419 8.56063 1407 ft 1 kts 186°
2026-04-26 11:52 47.45416 8.56062 1407 ft 1 kts 186°
2026-04-26 11:52 47.45411 8.56062 1407 ft 1 kts 186°
2026-04-26 11:52 47.45410 8.56062 1407 ft 0 kts 186°